Home   Weather   Emmerich am Rhein   Past weeks

Flag for Germany Past Weather in Emmerich am Rhein, North Rhine-Westphalia, Germany — Yesterday and Last 2 Weeks

Now
57 °F

Sunny.


Feels Like: 55 °F
Forecast: 51 / 67 °F
Wind: 9 mph from Southeast

Location: Niederrhein

Current Time: Sep 25, 2016 at 9:15:32 AM

Latest Report: Sep 25, 2016 at 8:50 AM


Visibility: 10 mi

Pressure: 30.01 "Hg

Humidity: 77%

Dew Point: 50 °F

Location of Emmerich am RheinLocation

Past Weather in Emmerich am Rhein — Graph

°F

Emmerich am Rhein Temperature Yesterday

Maximum temperature yesterday: 75 °F (at 3:20 PM)
Minimum temperature yesterday: 50 °F (at 6:20 AM)
Average temperature yesterday: 64 °F

High & Low Weather Summary for the Past Weeks

 TemperatureHumidityPressure
High91 °F (Sep 13, 3:50 PM)100% (Sep 10, 7:20 AM)30.30 "Hg (Sep 10, 7:20 AM)
Low46 °F (Sep 22, 5:20 AM)26% (Sep 14, 3:50 PM)29.77 "Hg (Sep 15, 3:50 PM)
Average67 °F70%30.04 "Hg
* Reported Sep 10 7:20 AM — Sep 25 7:50 AM, Emmerich am Rhein, Weather by CustomWeather, © 2016

Note: Actual official high and low records may vary slightly from our data, if they occured in-between our weather recording intervals... More about our weather records

Advertising

Emmerich am Rhein Weather History for the Previous 24 Hours

Scroll right to see more
 ConditionsComfort  
Time TempWeatherWind HumidityBarometerVisibility
7:50 AM
Sun, Sep 25
55 °FClear.8 mph77%30.04 "Hg10 mi
7:20 AM54 °FClear.8 mph82%30.04 "Hg10 mi
6:50 AM55 °FClear.7 mph77%30.04 "Hg10 mi
6:20 AM54 °FClear.8 mph82%30.04 "Hg10 mi
5:50 AM55 °FClear.8 mph77%30.04 "Hg10 mi
5:20 AM55 °FClear.7 mph77%30.04 "Hg10 mi
4:50 AM55 °FClear.7 mph77%30.04 "Hg10 mi
11:50 PM
Sat, Sep 24
61 °FClear.6 mph63%30.09 "Hg10 mi
11:20 PM61 °FClear.7 mph68%30.09 "Hg10 mi
10:50 PM61 °FClear.6 mph68%30.12 "Hg10 mi
10:20 PM61 °FClear.5 mph68%30.12 "Hg10 mi
9:50 PM61 °FClear.5 mph68%30.12 "Hg10 mi
9:20 PM61 °FClear.2 mph72%30.12 "Hg10 mi
8:50 PM59 °FClear.3 mph72%30.12 "Hg10 mi
8:20 PM63 °FSunny.2 mph68%30.12 "Hg10 mi
7:50 PM66 °FSunny.2 mph56%30.12 "Hg10 mi
7:20 PM70 °FSunny.3 mph50%30.12 "Hg10 mi
6:50 PM72 °FSunny.3 mph47%30.12 "Hg10 mi
6:20 PM75 °FPassing clouds.7 mph41%30.12 "HgN/A
5:50 PM75 °FPassing clouds.7 mph41%30.12 "HgN/A
5:20 PM75 °FPassing clouds.9 mph39%30.15 "HgN/A
4:50 PM75 °FPassing clouds.8 mph41%30.15 "HgN/A
4:20 PM75 °FPassing clouds.9 mph41%30.15 "HgN/A
3:50 PM75 °FPassing clouds.8 mph44%30.18 "HgN/A
3:20 PM75 °FPassing clouds.10 mph44%30.18 "HgN/A
2:50 PM73 °FPassing clouds.8 mph47%30.21 "HgN/A
2:20 PM73 °FPassing clouds.8 mph50%30.21 "HgN/A
1:50 PM73 °FPassing clouds.7 mph50%30.21 "HgN/A
1:20 PM73 °FPassing clouds.9 mph50%30.24 "HgN/A
12:50 PM72 °FPassing clouds.8 mph53%30.24 "HgN/A
12:20 PM70 °FPassing clouds.8 mph57%30.24 "HgN/A
11:50 AM68 °FPassing clouds.8 mph64%30.24 "HgN/A
11:20 AM66 °FPassing clouds.8 mph68%30.24 "HgN/A
10:50 AM64 °FPassing clouds.7 mph68%30.24 "HgN/A
10:20 AM61 °FPassing clouds.8 mph77%30.24 "HgN/A
9:50 AM59 °FSunny.8 mph82%30.24 "Hg10 mi
9:20 AM55 °FSunny.7 mph94%30.24 "Hg10 mi
Weather by CustomWeather, © 2016

See weather overviewHow to use our weather pages